sat.trackr.live / text

‹ back to catalog

SHIYAN-12 02 (SY-12 02)

NORAD 50322 · 2021-129B

PAYLOAD ACTIVE UNKNOWN

§ Identity

Operator
Country
PRC
Launch date
2021-12-23
Launch site
WSC
Launch vehicle
Mass (kg)
RCS (m²)

Purposes: comms

External: N2YO · Heavens-Above · Gunter

§ Orbital elements

Epoch: 2026-05-24T16:06:00.176832Z

Period
1,432.95 min
Inclination
3.6161°
Eccentricity
0.0002247
Mean motion
1.00492065 rev/d
Perigee alt
35,715.5 km
Apogee alt
35,734.4 km
Semi-major
42,103.1 km
B*
0.0000e+0
RAAN
80.2270°
Arg perigee
47.7666°
Mean anomaly
66.0515°
Rev number
1,626

§ Raw data

SHIYAN-12 02 (SY-12 02)1 50322U 21129B   26144.67083538 -.00000094  00000+0  00000+0 0  99962 50322   3.6161  80.2270 0002247  47.7666  66.0515  1.00492065 16266

JSON: /api/v1/satellites/50322 · /tle

For live sub-satellite position, see the globe view (requires WebGL).

§ Visibility from observer

Set your observer location to see the next 7 days of passes ≥ 10°. The values pass through the URL so the page stays shareable.

No JS? Fill the form by hand. The geolocation button needs JavaScript.